TimeCST,TemperatureF,Dew PointF,Humidity,Sea Level PressureIn,VisibilityMPH,Wind Direction,Wind SpeedMPH,Gust SpeedMPH,PrecipitationIn,Events,Conditions,WindDirDegrees,DateUTC
12:52 AM,39.0,23.0,53,29.88,10.0,South,18.4,26.5,N/A,,Clear,180,2011-11-18 06:52:00
1:52 AM,39.0,23.0,53,29.86,10.0,South,17.3,-,N/A,,Clear,180,2011-11-18 07:52:00
2:52 AM,37.9,23.0,55,29.85,10.0,South,15.0,-,N/A,,Clear,180,2011-11-18 08:52:00
3:52 AM,37.4,24.8,60,29.82,10.0,South,12.7,-,N/A,,Clear,180,2011-11-18 09:52:00
4:52 AM,37.0,24.1,59,29.81,10.0,South,13.8,-,N/A,,Clear,170,2011-11-18 10:52:00
5:52 AM,36.0,25.0,64,29.80,10.0,South,13.8,-,N/A,,Partly Cloudy,170,2011-11-18 11:52:00
6:52 AM,36.0,26.1,67,29.79,10.0,SSE,11.5,-,N/A,,Scattered Clouds,160,2011-11-18 12:52:00
7:52 AM,35.1,27.0,72,29.81,10.0,SSE,10.4,-,N/A,,Mostly Cloudy,150,2011-11-18 13:52:00
8:52 AM,39.0,28.0,65,29.80,10.0,South,12.7,-,N/A,,Scattered Clouds,170,2011-11-18 14:52:00
9:52 AM,45.0,28.9,53,29.77,10.0,South,17.3,23.0,N/A,,Scattered Clouds,180,2011-11-18 15:52:00
10:52 AM,50.0,30.0,46,29.74,10.0,South,23.0,34.5,N/A,,Scattered Clouds,190,2011-11-18 16:52:00
11:52 AM,53.1,30.0,41,29.70,10.0,SSW,20.7,27.6,N/A,,Scattered Clouds,200,2011-11-18 17:52:00
12:52 PM,55.0,30.9,40,29.68,10.0,SSW,20.7,28.8,N/A,,Scattered Clouds,200,2011-11-18 18:52:00
1:52 PM,55.9,32.0,40,29.65,10.0,South,18.4,27.6,N/A,,Scattered Clouds,180,2011-11-18 19:52:00
2:52 PM,55.9,33.1,42,29.64,10.0,SSW,17.3,28.8,N/A,,Scattered Clouds,200,2011-11-18 20:52:00
3:52 PM,57.0,34.0,42,29.63,10.0,South,15.0,-,N/A,,Mostly Cloudy,190,2011-11-18 21:52:00
4:52 PM,55.9,34.0,44,29.66,10.0,South,10.4,19.6,N/A,,Mostly Cloudy,190,2011-11-18 22:52:00
5:52 PM,52.0,35.1,53,29.68,10.0,South,6.9,-,N/A,,Mostly Cloudy,190,2011-11-18 23:52:00
6:52 PM,45.0,34.0,65,29.69,10.0,SSE,6.9,-,N/A,,Scattered Clouds,150,2011-11-19 00:52:00
7:52 PM,48.9,37.0,64,29.70,10.0,South,8.1,-,N/A,,Partly Cloudy,180,2011-11-19 01:52:00
8:52 PM,48.9,37.9,66,29.69,10.0,South,6.9,-,N/A,,Partly Cloudy,170,2011-11-19 02:52:00
9:52 PM,46.0,37.9,73,29.69,10.0,SSE,8.1,-,N/A,,Scattered Clouds,160,2011-11-19 03:52:00
10:52 PM,43.0,37.0,80,29.68,10.0,SSE,9.2,-,N/A,,Scattered Clouds,160,2011-11-19 04:52:00
11:52 PM,41.0,36.0,82,29.68,10.0,SSE,10.4,-,N/A,,Partly Cloudy,150,2011-11-19 05:52:00